Home > Weather > Tangier > Past weeks

Flag for Morocco Past Weather in Tangier, Morocco — Yesterday and Last 2 Weeks

Now
79 °F

Passing clouds.


Feels Like: 80 °F
Forecast: 74 / 86 °F
Wind: 20 mph from East

Location: Tanger Aerodrome

Current Time: Jul 23, 2016 at 10:14:21 PM

Latest Report: Jul 23, 2016 at 9:30 PM


Visibility: 5 mi

Pressure: 29.92 "Hg

Humidity: 48%

Dew Point: 57 °F

Location of TangierLocation

Past Weather in Tangier — Graph

°F

Tangier Temperature Yesterday

Maximum temperature yesterday: 77 °F (at 12:30 PM)
Minimum temperature yesterday: 66 °F (at 12:00 AM)
Average temperature yesterday: 72 °F

High & Low Weather Summary for the Past Weeks

 TemperatureHumidityPressure
High95 °F (Jul 9, 12:00 PM)88% (Jul 11, 7:30 AM)30.04 "Hg (Jul 11, 7:30 AM)
Low61 °F (Jul 23, 6:30 AM)22% (Jul 9, 12:00 PM)29.86 "Hg (Jul 9, 4:00 PM)
Average79 °F57%29.95 "Hg
* Reported Jul 8 7:00 PM — Jul 23 8:00 PM, Tangier, Weather by CustomWeather, © 2016

Note: Actual official high and low records may vary slightly from our data, if they occured in-between our weather recording intervals... More about our weather records

Advertising

Tangier Weather History for the Previous 24 Hours

Scroll right to see more
 ConditionsComfort  
Time TempWeatherWind HumidityBarometerVisibility
8:00 PM
Sat, Jul 23
79 °FPassing clouds.20 mph58%29.89 "Hg5 mi
7:30 PM82 °FPassing clouds.20 mph51%29.89 "Hg5 mi
6:30 PM82 °FPassing clouds.22 mph51%29.89 "Hg5 mi
6:00 PM82 °FPassing clouds.23 mph55%29.89 "Hg5 mi
5:30 PM82 °FPassing clouds.23 mph55%29.89 "Hg5 mi
5:00 PM82 °FPassing clouds.24 mph58%29.92 "Hg5 mi
4:30 PM84 °FPassing clouds.26 mph55%29.92 "Hg5 mi
4:00 PM84 °FPassing clouds.25 mph55%29.92 "Hg5 mi
3:30 PM86 °FPassing clouds.23 mph49%29.92 "Hg5 mi
3:00 PM86 °FPassing clouds.21 mph49%29.95 "Hg5 mi
2:30 PM86 °FScattered clouds.21 mph52%29.95 "HgN/A
2:00 PM86 °FScattered clouds.22 mph49%29.95 "HgN/A
1:30 PM88 °FScattered clouds.21 mph46%29.95 "HgN/A
1:00 PM86 °FScattered clouds.18 mph52%29.98 "HgN/A
12:00 PM84 °FScattered clouds.16 mph51%29.98 "HgN/A
11:30 AM84 °FScattered clouds.14 mph55%29.98 "HgN/A
11:00 AM82 °FScattered clouds.14 mph58%29.98 "HgN/A
10:30 AM82 °FScattered clouds.14 mph58%29.98 "HgN/A
10:00 AM81 °FScattered clouds.14 mph62%29.98 "HgN/A
9:30 AM81 °FScattered clouds.10 mph62%29.98 "HgN/A
9:00 AM77 °FScattered clouds.12 mph69%29.98 "HgN/A
8:30 AM72 °FScattered clouds.No wind65%29.98 "HgN/A
8:00 AM68 °FScattered clouds.No wind73%29.98 "HgN/A
7:30 AM66 °FPassing clouds.No wind78%29.98 "HgN/A
7:00 AM61 °FPassing clouds.2 mph83%29.98 "Hg5 mi
6:30 AM61 °FPassing clouds.No wind83%29.98 "Hg5 mi
6:00 AM63 °FPassing clouds.2 mph77%29.98 "Hg5 mi
5:30 AM63 °FPassing clouds.1 mph83%29.98 "HgN/A
5:00 AM64 °FPassing clouds.6 mph78%29.98 "Hg4 mi
4:30 AM63 °FPassing clouds.5 mph83%29.98 "Hg4 mi
4:00 AM63 °FPassing clouds.5 mph83%29.98 "Hg4 mi
3:30 AM64 °FPassing clouds.1 mph83%29.98 "Hg4 mi
3:00 AM64 °FPassing clouds.3 mph83%29.98 "Hg4 mi
2:30 AM64 °FPassing clouds.5 mph83%30.01 "Hg4 mi
2:00 AM64 °FPassing clouds.2 mph83%30.01 "Hg4 mi
1:30 AM64 °FPassing clouds.2 mph83%30.01 "HgN/A
1:00 AM64 °FPassing clouds.2 mph83%30.01 "Hg5 mi
12:30 AM64 °FPassing clouds.No wind83%30.01 "Hg5 mi
12:00 AM68 °FPassing clouds.2 mph83%30.01 "Hg5 mi
11:30 PM
Fri, Jul 22
66 °FPassing clouds.No wind83%30.01 "Hg5 mi
11:00 PM66 °FPassing clouds.3 mph83%30.01 "Hg5 mi
10:30 PM68 °FPassing clouds.No wind83%30.01 "Hg5 mi
10:00 PM70 °FPassing clouds.2 mph83%30.01 "Hg5 mi
Weather by CustomWeather, © 2016

See weather overviewHow to use our weather pages